{"data":{"norad_id":60428,"epoch":"2026-09-21T16:04:36.740352Z","epoch_age_seconds":84454,"freshness":"FRESH","line1":"1 60428U 24144D   26264.66986968 -.00000236  00000+0  41356-5 0  9998","line2":"2 60428  53.1623  24.0544 0001146  56.4733 303.6379 15.34395042119391","mean_motion":15.34395042,"eccentricity":0.0001146,"inclination_deg":53.1623,"raan_deg":24.0544,"arg_perigee_deg":56.4733,"mean_anomaly_deg":303.6379,"bstar":4.1356e-6,"rev_number":11939,"period_min":93.848061326048,"perigee_km":461.93401448733,"apogee_km":463.50193844794,"semimajor_km":6840.8549764676,"source":"CELESTRAK","updated_at":"2026-09-22T09:00:49.233923Z"}}